contact:dominique.lefevre@mio.osupytheas.fr, maurice.libes@osupytheas.fr, didier.mallarino@osupytheas.fr
Project:EMSO http://www.emso-fr.org/EMSO-France
Depth: 2436.0 m
Title:EMSO Ligure Ouest : Data MII capteur OXYGEN
DateTime,Latitude,Longitude,Optode-Type,Optode_Serial,Oxygen,Saturation_Oxygen,Temperature
DateTime,Latitude,Longitude,Optode-Type,Optode_Serial,µmol.l-1,%,degC
2017-10-02T00:02:08,42.805,6.029,4330,1995,198.134,60.596,13.291
2017-10-02T00:05:08,42.805,6.029,4330,1995,197.940,60.537,13.291
2017-10-02T00:08:08,42.805,6.029,4330,1995,197.697,60.462,13.291
2017-10-02T00:11:08,42.805,6.029,4330,1995,197.602,60.434,13.291
2017-10-02T00:14:08,42.805,6.029,4330,1995,197.504,60.404,13.292
2017-10-02T00:17:08,42.805,6.029,4330,1995,197.714,60.465,13.289
2017-10-02T00:20:08,42.805,6.029,4330,1995,198.085,60.577,13.288
2017-10-02T00:23:08,42.805,6.029,4330,1995,198.244,60.624,13.287
2017-10-02T00:26:08,42.805,6.029,4330,1995,198.385,60.667,13.287
2017-10-02T00:29:08,42.805,6.029,4330,1995,198.512,60.706,13.286
2017-10-02T00:32:08,42.805,6.029,4330,1995,198.717,60.768,13.286
2017-10-02T00:35:08,42.805,6.029,4330,1995,198.918,60.830,13.286
2017-10-02T00:38:08,42.805,6.029,4330,1995,199.251,60.932,13.286
2017-10-02T00:41:08,42.805,6.029,4330,1995,199.335,60.957,13.286
2017-10-02T00:44:08,42.805,6.029,4330,1995,199.237,60.927,13.286
2017-10-02T00:47:08,42.805,6.029,4330,1995,199.534,61.018,13.286
2017-10-02T00:50:08,42.805,6.029,4330,1995,199.679,61.062,13.286
2017-10-02T00:53:08,42.805,6.029,4330,1995,199.589,61.035,13.286
2017-10-02T00:56:08,42.805,6.029,4330,1995,199.574,61.030,13.286
2017-10-02T00:59:08,42.805,6.029,4330,1995,199.641,61.050,13.286
2017-10-02T01:02:08,42.805,6.029,4330,1995,199.761,61.087,13.286
2017-10-02T01:05:08,42.805,6.029,4330,1995,199.897,61.129,13.286
2017-10-02T01:08:08,42.805,6.029,4330,1995,199.939,61.141,13.286
2017-10-02T01:11:08,42.805,6.029,4330,1995,199.879,61.123,13.286
2017-10-02T01:14:08,42.805,6.029,4330,1995,199.848,61.113,13.286
2017-10-02T01:17:08,42.805,6.029,4330,1995,199.884,61.125,13.286
2017-10-02T01:20:08,42.805,6.029,4330,1995,199.876,61.122,13.286
2017-10-02T01:23:08,42.805,6.029,4330,1995,199.894,61.128,13.286
2017-10-02T01:26:08,42.805,6.029,4330,1995,199.905,61.131,13.286
2017-10-02T01:29:08,42.805,6.029,4330,1995,199.896,61.128,13.286
2017-10-02T01:32:08,42.805,6.029,4330,1995,199.965,61.149,13.286
2017-10-02T01:35:08,42.805,6.029,4330,1995,199.820,61.105,13.286
2017-10-02T01:38:08,42.805,6.029,4330,1995,199.759,61.086,13.286
2017-10-02T01:41:08,42.805,6.029,4330,1995,199.893,61.127,13.286
2017-10-02T01:44:08,42.805,6.029,4330,1995,199.869,61.120,13.286
2017-10-02T01:47:08,42.805,6.029,4330,1995,199.860,61.117,13.286
2017-10-02T01:50:08,42.805,6.029,4330,1995,199.837,61.110,13.286
2017-10-02T01:53:08,42.805,6.029,4330,1995,199.869,61.120,13.286
2017-10-02T01:56:07,42.805,6.029,4330,1995,199.888,61.126,13.286
2017-10-02T01:59:07,42.805,6.029,4330,1995,199.846,61.113,13.286
2017-10-02T02:02:07,42.805,6.029,4330,1995,199.898,61.129,13.286
2017-10-02T02:05:07,42.805,6.029,4330,1995,199.870,61.120,13.286
2017-10-02T02:08:07,42.805,6.029,4330,1995,199.770,61.090,13.286
2017-10-02T02:11:07,42.805,6.029,4330,1995,199.661,61.056,13.286
2017-10-02T02:14:07,42.805,6.029,4330,1995,199.647,61.052,13.286
2017-10-02T02:17:07,42.805,6.029,4330,1995,199.636,61.049,13.286
2017-10-02T02:20:07,42.805,6.029,4330,1995,199.587,61.034,13.286
2017-10-02T02:23:07,42.805,6.029,4330,1995,199.701,61.069,13.286
2017-10-02T02:26:07,42.805,6.029,4330,1995,199.828,61.107,13.286
2017-10-02T02:29:07,42.805,6.029,4330,1995,199.934,61.140,13.286
2017-10-02T02:32:07,42.805,6.029,4330,1995,199.915,61.134,13.286
2017-10-02T02:35:07,42.805,6.029,4330,1995,199.968,61.150,13.286
2017-10-02T02:38:07,42.805,6.029,4330,1995,199.805,61.100,13.286
2017-10-02T02:41:07,42.805,6.029,4330,1995,199.867,61.119,13.286
2017-10-02T02:44:07,42.805,6.029,4330,1995,199.997,61.159,13.286
2017-10-02T02:47:07,42.805,6.029,4330,1995,199.954,61.146,13.286
2017-10-02T02:50:07,42.805,6.029,4330,1995,199.974,61.152,13.286
2017-10-02T02:53:07,42.805,6.029,4330,1995,199.956,61.146,13.286
2017-10-02T02:56:07,42.805,6.029,4330,1995,200.020,61.166,13.286
2017-10-02T02:59:07,42.805,6.029,4330,1995,199.923,61.136,13.286
2017-10-02T03:02:07,42.805,6.029,4330,1995,199.944,61.143,13.286
2017-10-02T03:05:07,42.805,6.029,4330,1995,199.936,61.140,13.286
2017-10-02T03:08:07,42.805,6.029,4330,1995,200.040,61.172,13.286
2017-10-02T03:11:07,42.805,6.029,4330,1995,200.032,61.170,13.286
2017-10-02T03:14:07,42.805,6.029,4330,1995,199.940,61.141,13.286
2017-10-02T03:17:07,42.805,6.029,4330,1995,199.957,61.147,13.286
2017-10-02T03:20:07,42.805,6.029,4330,1995,199.969,61.150,13.286
2017-10-02T03:23:07,42.805,6.029,4330,1995,199.932,61.139,13.286
2017-10-02T03:26:07,42.805,6.029,4330,1995,199.897,61.128,13.286
2017-10-02T03:29:07,42.805,6.029,4330,1995,199.779,61.093,13.286
2017-10-02T03:32:07,42.805,6.029,4330,1995,199.797,61.098,13.286
2017-10-02T03:35:07,42.805,6.029,4330,1995,199.778,61.092,13.286
2017-10-02T03:38:07,42.805,6.029,4330,1995,199.780,61.093,13.286
2017-10-02T03:41:07,42.805,6.029,4330,1995,199.842,61.112,13.286
2017-10-02T03:44:07,42.805,6.029,4330,1995,199.816,61.104,13.286
2017-10-02T03:47:07,42.805,6.029,4330,1995,199.898,61.129,13.286
2017-10-02T03:50:07,42.805,6.029,4330,1995,199.887,61.126,13.286
2017-10-02T03:53:07,42.805,6.029,4330,1995,199.940,61.142,13.286
2017-10-02T03:56:07,42.805,6.029,4330,1995,200.033,61.170,13.286
2017-10-02T03:59:07,42.805,6.029,4330,1995,200.021,61.166,13.286
2017-10-02T04:02:07,42.805,6.029,4330,1995,200.047,61.174,13.286
2017-10-02T04:05:07,42.805,6.029,4330,1995,200.020,61.166,13.286
2017-10-02T04:08:07,42.805,6.029,4330,1995,200.114,61.195,13.286
2017-10-02T04:11:07,42.805,6.029,4330,1995,200.164,61.210,13.286
2017-10-02T04:14:07,42.805,6.029,4330,1995,200.107,61.193,13.286
2017-10-02T04:17:07,42.805,6.029,4330,1995,200.132,61.200,13.286
2017-10-02T04:20:07,42.805,6.029,4330,1995,200.156,61.207,13.286
2017-10-02T04:23:07,42.805,6.029,4330,1995,200.137,61.202,13.286
2017-10-02T04:26:07,42.805,6.029,4330,1995,200.184,61.216,13.286
2017-10-02T04:29:07,42.805,6.029,4330,1995,200.152,61.206,13.286
2017-10-02T04:32:07,42.805,6.029,4330,1995,200.148,61.205,13.286
2017-10-02T04:35:07,42.805,6.029,4330,1995,200.156,61.207,13.286
2017-10-02T04:38:07,42.805,6.029,4330,1995,200.119,61.196,13.286
2017-10-02T04:41:07,42.805,6.029,4330,1995,200.098,61.190,13.286
2017-10-02T04:44:07,42.805,6.029,4330,1995,200.091,61.188,13.286
2017-10-02T04:47:07,42.805,6.029,4330,1995,200.056,61.177,13.286
2017-10-02T04:50:07,42.805,6.029,4330,1995,200.120,61.197,13.286
2017-10-02T04:53:07,42.805,6.029,4330,1995,200.087,61.187,13.286
2017-10-02T04:56:07,42.805,6.029,4330,1995,200.068,61.181,13.286
2017-10-02T04:59:07,42.805,6.029,4330,1995,199.970,61.151,13.286
2017-10-02T05:02:07,42.805,6.029,4330,1995,199.992,61.158,13.286
2017-10-02T05:05:07,42.805,6.029,4330,1995,199.971,61.151,13.286
2017-10-02T05:08:07,42.805,6.029,4330,1995,200.017,61.165,13.286
2017-10-02T05:11:07,42.805,6.029,4330,1995,199.867,61.120,13.286
2017-10-02T05:14:07,42.805,6.029,4330,1995,199.810,61.102,13.286
2017-10-02T05:17:07,42.805,6.029,4330,1995,199.689,61.066,13.287
2017-10-02T05:20:07,42.805,6.029,4330,1995,199.472,61.000,13.287
2017-10-02T05:23:07,42.805,6.029,4330,1995,199.248,60.931,13.287
2017-10-02T05:26:07,42.805,6.029,4330,1995,199.293,60.945,13.287
2017-10-02T05:29:07,42.805,6.029,4330,1995,199.512,61.013,13.287
2017-10-02T05:32:07,42.805,6.029,4330,1995,199.749,61.084,13.287
2017-10-02T05:35:07,42.805,6.029,4330,1995,199.905,61.132,13.287
2017-10-02T05:38:07,42.805,6.029,4330,1995,199.825,61.107,13.287
2017-10-02T05:41:07,42.805,6.029,4330,1995,199.882,61.125,13.287
2017-10-02T05:44:07,42.805,6.029,4330,1995,199.914,61.135,13.287
2017-10-02T05:47:07,42.805,6.029,4330,1995,200.048,61.176,13.287
2017-10-02T05:50:07,42.805,6.029,4330,1995,200.065,61.181,13.286
2017-10-02T05:53:07,42.805,6.029,4330,1995,200.027,61.169,13.287
2017-10-02T05:56:07,42.805,6.029,4330,1995,200.002,61.161,13.286
2017-10-02T05:59:07,42.805,6.029,4330,1995,200.001,61.161,13.286
2017-10-02T06:02:07,42.805,6.029,4330,1995,200.064,61.181,13.287
2017-10-02T06:05:07,42.805,6.029,4330,1995,200.088,61.189,13.287
2017-10-02T06:08:07,42.805,6.029,4330,1995,200.120,61.198,13.287
2017-10-02T06:11:07,42.805,6.029,4330,1995,200.144,61.205,13.287
2017-10-02T06:14:07,42.805,6.029,4330,1995,200.165,61.212,13.287
2017-10-02T06:17:07,42.805,6.029,4330,1995,200.179,61.216,13.287
2017-10-02T06:20:07,42.805,6.029,4330,1995,200.109,61.195,13.287
2017-10-02T06:23:07,42.805,6.029,4330,1995,200.143,61.205,13.287
2017-10-02T06:26:07,42.805,6.029,4330,1995,200.150,61.208,13.287
2017-10-02T06:29:07,42.805,6.029,4330,1995,200.085,61.188,13.287
2017-10-02T06:32:07,42.805,6.029,4330,1995,200.047,61.175,13.287
2017-10-02T06:35:07,42.805,6.029,4330,1995,200.014,61.166,13.287
2017-10-02T06:38:07,42.805,6.029,4330,1995,200.022,61.169,13.288
2017-10-02T06:41:07,42.805,6.029,4330,1995,199.861,61.120,13.288
2017-10-02T06:44:07,42.805,6.029,4330,1995,199.813,61.104,13.287
2017-10-02T06:47:07,42.805,6.029,4330,1995,199.786,61.097,13.287
2017-10-02T06:50:07,42.805,6.029,4330,1995,199.697,61.069,13.287
2017-10-02T06:53:07,42.805,6.029,4330,1995,199.808,61.103,13.287
2017-10-02T06:56:07,42.805,6.029,4330,1995,199.874,61.123,13.287
2017-10-02T06:59:07,42.805,6.029,4330,1995,199.975,61.154,13.287
2017-10-02T07:02:07,42.805,6.029,4330,1995,199.931,61.141,13.287
2017-10-02T07:05:07,42.805,6.029,4330,1995,199.827,61.109,13.288
2017-10-02T07:08:07,42.805,6.029,4330,1995,199.706,61.072,13.288
2017-10-02T07:11:07,42.805,6.029,4330,1995,199.635,61.051,13.288
2017-10-02T07:14:07,42.805,6.029,4330,1995,199.611,61.044,13.288
2017-10-02T07:17:07,42.805,6.029,4330,1995,199.624,61.047,13.287
2017-10-02T07:20:07,42.805,6.029,4330,1995,199.561,61.028,13.287
2017-10-02T07:23:07,42.805,6.029,4330,1995,199.533,61.020,13.288
2017-10-02T07:26:07,42.805,6.029,4330,1995,199.569,61.031,13.288
2017-10-02T07:29:07,42.805,6.029,4330,1995,199.484,61.005,13.288
2017-10-02T07:32:07,42.805,6.029,4330,1995,199.613,61.044,13.288
2017-10-02T07:35:07,42.805,6.029,4330,1995,199.670,61.061,13.288
2017-10-02T07:38:07,42.805,6.029,4330,1995,199.796,61.099,13.287
2017-10-02T07:41:07,42.805,6.029,4330,1995,199.797,61.099,13.287
2017-10-02T07:44:07,42.805,6.029,4330,1995,199.674,61.063,13.288
2017-10-02T07:47:07,42.805,6.029,4330,1995,199.714,61.076,13.288
2017-10-02T07:50:07,42.805,6.029,4330,1995,199.756,61.087,13.287
2017-10-02T07:53:07,42.805,6.029,4330,1995,199.835,61.112,13.287
2017-10-02T07:56:07,42.805,6.029,4330,1995,199.711,61.075,13.288
2017-10-02T07:59:07,42.805,6.029,4330,1995,199.664,61.059,13.287
2017-10-02T08:02:07,42.805,6.029,4330,1995,199.688,61.067,13.288
2017-10-02T08:05:07,42.805,6.029,4330,1995,199.699,61.069,13.287
2017-10-02T08:08:07,42.805,6.029,4330,1995,199.725,61.078,13.288
2017-10-02T08:11:07,42.805,6.029,4330,1995,199.693,61.068,13.288
2017-10-02T08:14:07,42.805,6.029,4330,1995,199.616,61.044,13.287
2017-10-02T08:17:07,42.805,6.029,4330,1995,199.519,61.015,13.288
2017-10-02T08:20:07,42.805,6.029,4330,1995,199.534,61.022,13.289
2017-10-02T08:23:07,42.805,6.029,4330,1995,199.542,61.022,13.288
2017-10-02T08:26:07,42.805,6.029,4330,1995,199.603,61.041,13.288
2017-10-02T08:29:07,42.805,6.029,4330,1995,199.538,61.021,13.288
2017-10-02T08:32:07,42.805,6.029,4330,1995,199.468,61.000,13.288
2017-10-02T08:35:07,42.805,6.029,4330,1995,199.359,60.966,13.288
2017-10-02T08:38:07,42.805,6.029,4330,1995,199.439,60.991,13.288
2017-10-02T08:41:07,42.805,6.029,4330,1995,199.525,61.017,13.288
2017-10-02T08:44:07,42.805,6.029,4330,1995,199.586,61.036,13.288
2017-10-02T08:47:07,42.805,6.029,4330,1995,199.574,61.032,13.288
2017-10-02T08:50:07,42.805,6.029,4330,1995,199.608,61.042,13.287
2017-10-02T08:53:07,42.805,6.029,4330,1995,199.606,61.042,13.288
2017-10-02T08:56:07,42.805,6.029,4330,1995,199.625,61.047,13.287
2017-10-02T08:59:07,42.805,6.029,4330,1995,199.575,61.032,13.287
2017-10-02T09:02:07,42.805,6.029,4330,1995,199.475,61.001,13.287
2017-10-02T09:05:07,42.805,6.029,4330,1995,199.527,61.017,13.287
2017-10-02T09:08:07,42.805,6.029,4330,1995,199.435,60.990,13.288
2017-10-02T09:11:07,42.805,6.029,4330,1995,199.575,61.032,13.288
2017-10-02T09:14:07,42.805,6.029,4330,1995,199.541,61.021,13.287
2017-10-02T09:17:07,42.805,6.029,4330,1995,199.533,61.019,13.287
2017-10-02T09:20:07,42.805,6.029,4330,1995,199.573,61.032,13.288
2017-10-02T09:23:07,42.805,6.029,4330,1995,199.521,61.018,13.289
2017-10-02T09:26:07,42.805,6.029,4330,1995,199.689,61.067,13.287
2017-10-02T09:29:07,42.805,6.029,4330,1995,199.642,61.052,13.287
2017-10-02T09:32:07,42.805,6.029,4330,1995,199.627,61.048,13.287
2017-10-02T09:35:07,42.805,6.029,4330,1995,199.781,61.095,13.287
2017-10-02T09:38:07,42.805,6.029,4330,1995,199.779,61.094,13.287
2017-10-02T09:41:07,42.805,6.029,4330,1995,199.805,61.102,13.287
2017-10-02T09:44:07,42.805,6.029,4330,1995,199.653,61.056,13.287
2017-10-02T09:47:07,42.805,6.029,4330,1995,199.830,61.110,13.287
2017-10-02T09:50:07,42.805,6.029,4330,1995,199.867,61.121,13.287
2017-10-02T09:53:07,42.805,6.029,4330,1995,199.631,61.049,13.287
2017-10-02T09:56:07,42.805,6.029,4330,1995,199.602,61.041,13.287
2017-10-02T09:59:07,42.805,6.029,4330,1995,199.585,61.035,13.287
2017-10-02T10:02:07,42.805,6.029,4330,1995,199.601,61.040,13.287
2017-10-02T10:05:07,42.805,6.029,4330,1995,199.550,61.024,13.288
2017-10-02T10:08:07,42.805,6.029,4330,1995,199.531,61.019,13.288
2017-10-02T10:11:07,42.805,6.029,4330,1995,199.487,61.005,13.287
2017-10-02T10:14:07,42.805,6.029,4330,1995,199.594,61.037,13.287
2017-10-02T10:17:07,42.805,6.029,4330,1995,199.615,61.045,13.288
2017-10-02T10:20:07,42.805,6.029,4330,1995,199.674,61.062,13.287
2017-10-02T10:23:07,42.805,6.029,4330,1995,199.628,61.048,13.287
2017-10-02T10:26:07,42.805,6.029,4330,1995,199.491,61.006,13.288
2017-10-02T10:29:07,42.805,6.029,4330,1995,199.454,60.995,13.288
2017-10-02T10:32:07,42.805,6.029,4330,1995,199.495,61.008,13.288
2017-10-02T10:35:07,42.805,6.029,4330,1995,199.490,61.006,13.288
2017-10-02T10:38:07,42.805,6.029,4330,1995,199.604,61.040,13.287
2017-10-02T10:41:07,42.805,6.029,4330,1995,199.758,61.088,13.288
2017-10-02T10:44:07,42.805,6.029,4330,1995,199.769,61.091,13.287
2017-10-02T10:47:07,42.805,6.029,4330,1995,199.679,61.064,13.287
2017-10-02T10:50:07,42.805,6.029,4330,1995,199.743,61.084,13.288
2017-10-02T10:53:07,42.805,6.029,4330,1995,199.710,61.074,13.288
2017-10-02T10:56:07,42.805,6.029,4330,1995,199.655,61.057,13.288
2017-10-02T10:59:07,42.805,6.029,4330,1995,199.686,61.066,13.287
2017-10-02T11:02:07,42.805,6.029,4330,1995,199.597,61.039,13.287
2017-10-02T11:05:07,42.805,6.029,4330,1995,199.616,61.045,13.288
2017-10-02T11:08:07,42.805,6.029,4330,1995,199.554,61.026,13.288
2017-10-02T11:11:07,42.805,6.029,4330,1995,199.566,61.030,13.288
2017-10-02T11:14:07,42.805,6.029,4330,1995,199.631,61.049,13.288
2017-10-02T11:17:07,42.805,6.029,4330,1995,199.587,61.036,13.288
2017-10-02T11:20:07,42.805,6.029,4330,1995,199.580,61.034,13.288
2017-10-02T11:23:07,42.805,6.029,4330,1995,199.593,61.038,13.288
2017-10-02T11:26:07,42.805,6.029,4330,1995,199.674,61.062,13.287
2017-10-02T11:29:07,42.805,6.029,4330,1995,199.614,61.044,13.288
2017-10-02T11:32:07,42.805,6.029,4330,1995,199.629,61.048,13.287
2017-10-02T11:35:07,42.805,6.029,4330,1995,199.507,61.012,13.288
2017-10-02T11:38:07,42.805,6.029,4330,1995,199.498,61.009,13.287
2017-10-02T11:41:07,42.805,6.029,4330,1995,199.537,61.020,13.287
2017-10-02T11:44:07,42.805,6.029,4330,1995,199.535,61.020,13.287
2017-10-02T11:47:07,42.805,6.029,4330,1995,199.588,61.036,13.288
2017-10-02T11:50:07,42.805,6.029,4330,1995,199.558,61.027,13.287
2017-10-02T11:53:07,42.805,6.029,4330,1995,199.581,61.034,13.288
2017-10-02T11:56:07,42.805,6.029,4330,1995,199.609,61.042,13.288
2017-10-02T11:59:07,42.805,6.029,4330,1995,199.532,61.019,13.287
2017-10-02T12:02:07,42.805,6.029,4330,1995,199.388,60.975,13.288
2017-10-02T12:05:07,42.805,6.029,4330,1995,199.235,60.928,13.287
2017-10-02T12:08:07,42.805,6.029,4330,1995,199.036,60.868,13.288
2017-10-02T12:11:07,42.805,6.029,4330,1995,198.797,60.795,13.288
2017-10-02T12:14:07,42.805,6.029,4330,1995,198.713,60.769,13.288
2017-10-02T12:17:07,42.805,6.029,4330,1995,198.733,60.776,13.288
2017-10-02T12:20:07,42.805,6.029,4330,1995,198.621,60.742,13.289
2017-10-02T12:23:07,42.805,6.029,4330,1995,198.610,60.737,13.287
2017-10-02T12:26:07,42.805,6.029,4330,1995,198.637,60.746,13.288
2017-10-02T12:29:07,42.805,6.029,4330,1995,198.746,60.779,13.288
2017-10-02T12:32:07,42.805,6.029,4330,1995,198.818,60.801,13.288
2017-10-02T12:35:07,42.805,6.029,4330,1995,198.893,60.823,13.287
2017-10-02T12:38:07,42.805,6.029,4330,1995,198.872,60.818,13.288
2017-10-02T12:41:07,42.805,6.029,4330,1995,198.991,60.854,13.288
2017-10-02T12:44:07,42.805,6.029,4330,1995,198.928,60.835,13.288
2017-10-02T12:47:07,42.805,6.029,4330,1995,198.960,60.844,13.287
2017-10-02T12:50:07,42.805,6.029,4330,1995,198.885,60.822,13.288
2017-10-02T12:53:07,42.805,6.029,4330,1995,198.914,60.830,13.287
2017-10-02T12:56:07,42.805,6.029,4330,1995,199.084,60.883,13.288
2017-10-02T12:59:07,42.805,6.029,4330,1995,198.971,60.850,13.290
2017-10-02T13:02:07,42.805,6.029,4330,1995,198.732,60.776,13.289
2017-10-02T13:05:07,42.805,6.029,4330,1995,198.686,60.762,13.289
2017-10-02T13:08:07,42.805,6.029,4330,1995,198.620,60.741,13.288
2017-10-02T13:11:07,42.805,6.029,4330,1995,198.751,60.781,13.288
2017-10-02T13:14:07,42.805,6.029,4330,1995,198.760,60.784,13.288
2017-10-02T13:17:07,42.805,6.029,4330,1995,198.734,60.776,13.288
2017-10-02T13:20:07,42.805,6.029,4330,1995,198.593,60.732,13.288
2017-10-02T13:23:07,42.805,6.029,4330,1995,198.519,60.710,13.288
2017-10-02T13:26:07,42.805,6.029,4330,1995,198.541,60.716,13.288
2017-10-02T13:29:07,42.805,6.029,4330,1995,198.598,60.734,13.288
2017-10-02T13:32:07,42.805,6.029,4330,1995,198.440,60.686,13.288
2017-10-02T13:35:07,42.805,6.029,4330,1995,198.507,60.706,13.288
2017-10-02T13:38:07,42.805,6.029,4330,1995,198.470,60.694,13.288
2017-10-02T13:41:07,42.805,6.029,4330,1995,198.402,60.675,13.289
2017-10-02T13:44:07,42.805,6.029,4330,1995,198.431,60.682,13.288
2017-10-02T13:47:07,42.805,6.029,4330,1995,198.540,60.716,13.288
2017-10-02T13:50:07,42.805,6.029,4330,1995,198.610,60.738,13.288
2017-10-02T13:53:07,42.805,6.029,4330,1995,198.563,60.723,13.288
2017-10-02T13:56:07,42.805,6.029,4330,1995,198.599,60.734,13.287
2017-10-02T13:59:07,42.805,6.029,4330,1995,198.546,60.718,13.288
2017-10-02T14:02:07,42.805,6.029,4330,1995,198.543,60.716,13.287
2017-10-02T14:05:07,42.805,6.029,4330,1995,198.508,60.707,13.288
2017-10-02T14:08:07,42.805,6.029,4330,1995,198.428,60.682,13.288
2017-10-02T14:11:07,42.805,6.029,4330,1995,198.391,60.671,13.288
2017-10-02T14:14:07,42.805,6.029,4330,1995,198.429,60.682,13.288
2017-10-02T14:17:07,42.805,6.029,4330,1995,198.521,60.710,13.288
2017-10-02T14:20:07,42.805,6.029,4330,1995,198.401,60.674,13.288
2017-10-02T14:23:07,42.805,6.029,4330,1995,198.350,60.658,13.288
2017-10-02T14:26:07,42.805,6.029,4330,1995,198.344,60.656,13.288
2017-10-02T14:29:07,42.805,6.029,4330,1995,198.414,60.677,13.287
2017-10-02T14:32:07,42.805,6.029,4330,1995,198.341,60.655,13.288
2017-10-02T14:35:07,42.805,6.029,4330,1995,198.336,60.654,13.288
2017-10-02T14:38:07,42.805,6.029,4330,1995,198.268,60.633,13.288
2017-10-02T14:41:07,42.805,6.029,4330,1995,198.086,60.578,13.288
2017-10-02T14:44:07,42.805,6.029,4330,1995,198.059,60.569,13.288
2017-10-02T14:47:07,42.805,6.029,4330,1995,197.927,60.530,13.289
2017-10-02T14:50:07,42.805,6.029,4330,1995,197.811,60.495,13.289
2017-10-02T14:53:07,42.805,6.029,4330,1995,197.884,60.518,13.290
2017-10-02T14:56:07,42.805,6.029,4330,1995,197.771,60.482,13.288
2017-10-02T14:59:07,42.805,6.029,4330,1995,197.844,60.503,13.288
2017-10-02T15:02:07,42.805,6.029,4330,1995,198.019,60.556,13.287
2017-10-02T15:05:07,42.805,6.029,4330,1995,198.162,60.600,13.288
2017-10-02T15:08:07,42.805,6.029,4330,1995,198.287,60.639,13.288
2017-10-02T15:11:07,42.805,6.029,4330,1995,198.390,60.671,13.289
2017-10-02T15:14:07,42.805,6.029,4330,1995,198.269,60.634,13.289
2017-10-02T15:17:07,42.805,6.029,4330,1995,198.207,60.615,13.288
2017-10-02T15:20:07,42.805,6.029,4330,1995,198.239,60.624,13.288
2017-10-02T15:23:07,42.805,6.029,4330,1995,198.262,60.631,13.288
2017-10-02T15:26:07,42.805,6.029,4330,1995,198.416,60.678,13.288
2017-10-02T15:29:07,42.805,6.029,4330,1995,198.358,60.661,13.289
2017-10-02T15:32:07,42.805,6.029,4330,1995,198.126,60.591,13.289
2017-10-02T15:35:07,42.805,6.029,4330,1995,197.835,60.507,13.292
2017-10-02T15:38:07,42.805,6.029,4330,1995,197.919,60.528,13.289
2017-10-02T15:41:07,42.805,6.029,4330,1995,197.869,60.510,13.287
2017-10-02T15:44:07,42.805,6.029,4330,1995,198.090,60.578,13.288
2017-10-02T15:47:07,42.805,6.029,4330,1995,198.184,60.607,13.288
2017-10-02T15:50:07,42.805,6.029,4330,1995,198.189,60.609,13.288
2017-10-02T15:53:07,42.805,6.029,4330,1995,198.183,60.607,13.288
2017-10-02T15:56:07,42.805,6.029,4330,1995,198.162,60.601,13.289
2017-10-02T15:59:07,42.805,6.029,4330,1995,197.972,60.545,13.289
2017-10-02T16:02:07,42.805,6.029,4330,1995,197.924,60.530,13.289
2017-10-02T16:05:07,42.805,6.029,4330,1995,197.868,60.512,13.289
2017-10-02T16:08:07,42.805,6.029,4330,1995,197.822,60.498,13.289
2017-10-02T16:11:07,42.805,6.029,4330,1995,197.643,60.442,13.288
2017-10-02T16:14:07,42.805,6.029,4330,1995,197.583,60.423,13.288
2017-10-02T16:17:07,42.805,6.029,4330,1995,197.539,60.410,13.288
2017-10-02T16:20:07,42.805,6.029,4330,1995,197.254,60.325,13.290
2017-10-02T16:23:07,42.805,6.029,4330,1995,197.179,60.304,13.291
2017-10-02T16:26:07,42.805,6.029,4330,1995,196.901,60.217,13.290
2017-10-02T16:29:07,42.805,6.029,4330,1995,196.954,60.233,13.289
2017-10-02T16:32:07,42.805,6.029,4330,1995,196.895,60.214,13.289
2017-10-02T16:35:07,42.805,6.029,4330,1995,197.088,60.275,13.290
2017-10-02T16:38:07,42.805,6.029,4330,1995,196.935,60.228,13.290
2017-10-02T16:41:07,42.805,6.029,4330,1995,196.717,60.160,13.289
2017-10-02T16:44:07,42.805,6.029,4330,1995,196.786,60.181,13.288
2017-10-02T16:47:07,42.805,6.029,4330,1995,196.649,60.140,13.289
2017-10-02T16:50:07,42.805,6.029,4330,1995,196.553,60.111,13.290
2017-10-02T16:53:07,42.805,6.029,4330,1995,196.992,60.245,13.289
2017-10-02T16:56:07,42.805,6.029,4330,1995,196.818,60.192,13.289
2017-10-02T16:59:07,42.805,6.029,4330,1995,196.873,60.210,13.290
2017-10-02T17:02:07,42.805,6.029,4330,1995,196.484,60.093,13.292
2017-10-02T17:05:07,42.805,6.029,4330,1995,196.363,60.055,13.291
2017-10-02T17:08:07,42.805,6.029,4330,1995,196.109,59.977,13.291
2017-10-02T17:11:07,42.805,6.029,4330,1995,196.307,60.037,13.291
2017-10-02T17:14:07,42.805,6.029,4330,1995,196.029,59.959,13.296
2017-10-02T17:17:07,42.805,6.029,4330,1995,196.316,60.041,13.291
2017-10-02T17:20:07,42.805,6.029,4330,1995,196.453,60.082,13.291
2017-10-02T17:23:07,42.805,6.029,4330,1995,196.381,60.062,13.292
2017-10-02T17:26:07,42.805,6.029,4330,1995,196.177,59.999,13.292
2017-10-02T17:29:07,42.805,6.029,4330,1995,196.118,59.982,13.293
2017-10-02T17:32:07,42.805,6.029,4330,1995,195.987,59.939,13.290
2017-10-02T17:35:07,42.805,6.029,4330,1995,196.404,60.067,13.291
2017-10-02T17:38:07,42.805,6.029,4330,1995,196.523,60.104,13.291
2017-10-02T17:41:07,42.805,6.029,4330,1995,196.591,60.125,13.292
2017-10-02T17:44:07,42.805,6.029,4330,1995,196.561,60.116,13.292
2017-10-02T17:47:07,42.805,6.029,4330,1995,196.555,60.114,13.292
2017-10-02T17:50:07,42.805,6.029,4330,1995,196.478,60.091,13.292
2017-10-02T17:53:07,42.805,6.029,4330,1995,196.513,60.102,13.292
2017-10-02T17:56:07,42.805,6.029,4330,1995,196.564,60.118,13.292
2017-10-02T17:59:07,42.805,6.029,4330,1995,196.546,60.110,13.291
2017-10-02T18:02:07,42.805,6.029,4330,1995,196.808,60.192,13.292
2017-10-02T18:05:07,42.805,6.029,4330,1995,196.832,60.198,13.291
2017-10-02T18:08:07,42.805,6.029,4330,1995,196.596,60.128,13.293